Location: Geroldsau
(48.7259°N, 8.2466°E)
Time: 04:42:58
(UTC+00:00)

FENGYUN 1C DEB - Pass Details

Date: 02 February 2022
Orbit: 832 x 1169 km, 98.6° (Epoch: 18 May)

Event Time Altitude Azimuth Distance (km) Brightness Sun altitude
Rises 17:26:10 0° 11° (N) 3,544 ? -10.1°
Reaches altitude 10° 17:28:32 10° 8° (N) 2,639 ? -10.5°
Maximum altitude 17:34:19 60° 290° (WNW) 1,122 ? -11.4°
Drops below altitude 10° 17:40:36 10° 213° (SSW) 2,850 ? -12.4°
Sets 17:43:14 0° 210° (SSW) 3,849 ? -12.8°
